Find Local Weather

World > North America > United States > Maryland

Betterton, Maryland Regional Weather

Lat: 39.37N, Lon: 76.06W
Wx Zone: MDZ012
Warning FLW WEATHER ALERT - (More Info. Click Here) Warning
Feedback
Expires:201812172000;;941515
ASUS41 KPHI 171912
RWRPHI

REGIONAL WEATHER ROUNDUP
NATIONAL WEATHER SERVICE MOUNT HOLLY NJ
200 PM EST MON DEC 17 2018

NOTE:  "FAIR" INDICATES FEW OR NO CLOUDS BELOW 12,000 FEET WITH NO
SIGNIFICANT WEATHER AND/OR OBSTRUCTIONS TO VISIBILITY.

 * = STATION DOES NOT REPORT PRECIPITATION (E.G. RAIN, SNOW, ETC.) 
        OR FOG.


DEZALL-MDZ008-012-015-019-020-172000-
DELAWARE AND EASTERN MARYLAND
  
CITY           SKY/WX    TMP DP  RH WIND       PRES   REMARKS
WILMINGTON     PTSUNNY   49  34  56 W12G21    29.78S                  
DOVER          FAIR      50  35  55 W17G24    29.77S                  
GEORGETOWN     FAIR      54  34  46 W16G28    29.79F                  
EASTON         MOSUNNY   54  36  50 W13G20    29.85S                  
ABERDEEN       PTSUNNY   50  34  53 CALM      29.78F                  
PATUXENT       PTSUNNY   55  38  52 W15G24    29.82                   
OCEAN CITY     FAIR      55  35  47 NW10      29.78F                  
WALLOPS ISLAND PTSUNNY   53  38  56 W12       29.81F                  
CAMBRIDGE      SUNNY     52  36  54 W10G16    29.81F                  
SALISBURY      FAIR      55  36  48 W13G23    29.80F                  

$$

SKY/WX - Weather  TMP - Temperature  DP - Dew Point  RH - Relative Humidity
WIND - Wind Direction/Speed PRES - Barometric Pressure